sat.trackr.live / text

‹ back to catalog

STARLINK-11364 [DTC]

NORAD 61543 · 2024-184M

PAYLOAD ACTIVE UNKNOWN

§ Identity

Operator
Country
US
Launch date
2024-10-15
Launch site
AFWTR
Launch vehicle
Mass (kg)
RCS (m²)

Purposes: comms

External: N2YO · Heavens-Above · Gunter

§ Orbital elements

Epoch: 2026-05-25T05:08:15.807840Z

Period
91.74 min
Inclination
53.1593°
Eccentricity
0.0000718
Mean motion
15.69706487 rev/d
Perigee alt
359.3 km
Apogee alt
360.2 km
Semi-major
6,737.9 km
B*
5.8232e-6
RAAN
219.2204°
Arg perigee
73.4127°
Mean anomaly
286.6969°
Rev number
9,243

§ Raw data

STARLINK-11364 [DTC]1 61543U 24184M   26145.21407185  .00000117  00000+0  58232-5 0  99972 61543  53.1593 219.2204 0000718  73.4127 286.6969 15.69706487 92434

JSON: /api/v1/satellites/61543 · /tle

For live sub-satellite position, see the globe view (requires WebGL).

§ Visibility from observer

Set your observer location to see the next 7 days of passes ≥ 10°. The values pass through the URL so the page stays shareable.

No JS? Fill the form by hand. The geolocation button needs JavaScript.